This is the latest recevied weather packets stored in our database for station/object WE3WEE. If no packets are shown the sender has not sent any weather packets the latest 10 day(s).
| Time | Temp. | Humidity | Pressure | Rain* | Wind** | Luminosity | Snow |
|---|---|---|---|---|---|---|---|
| 1777725669 | 8.33° C | 72% | 1014.8 hPa | 0 mm | - | - | - |
| 1777725368 | 7.78° C | 76% | 1014.8 hPa | 0 mm | - | - | - |
| 1777725064 | 7.22° C | 76% | 1014.8 hPa | 0 mm | - | - | - |
| 1777724760 | 7.22° C | 80% | 1014.8 hPa | 0 mm | - | - | - |
| 1777724452 | 6.67° C | 75% | 1014.8 hPa | 0 mm | - | - | - |
| 1777724149 | 6.67° C | 80% | 1014.8 hPa | 0 mm | - | - | - |
| 1777723847 | 6.67° C | 80% | 1014.8 hPa | 0 mm | - | - | - |
| 1777723543 | 6.67° C | 81% | 1013.8 hPa | 0 mm | - | - | - |
| 1777723240 | 7.22° C | 81% | 1013.8 hPa | 0 mm | - | - | - |
| 1777722939 | 7.78° C | 80% | 1013.8 hPa | 0 mm | - | - | - |
| 1777722634 | 7.22° C | 83% | 1013.8 hPa | 0 mm | - | - | - |
| 1777722331 | 7.22° C | 87% | 1013.8 hPa | 0 mm | - | - | - |
| 1777722027 | 7.22° C | 84% | 1013.8 hPa | 0 mm | - | - | - |
| 1777721725 | 6.67° C | 86% | 1013.8 hPa | 0 mm | - | - | - |
| 1777721424 | 6.67° C | 88% | 1013.8 hPa | 0 mm | - | - | - |
| 1777721121 | 6.11° C | 88% | 1013.8 hPa | 0 mm | - | - | - |
| 1777720818 | 5.56° C | 90% | 1013.8 hPa | 0 mm | - | - | - |
| 1777720515 | 5° C | 98% | 1013.8 hPa | 0 mm | - | - | - |
| 1777720213 | 3.89° C | 98% | 1013.8 hPa | 0 mm | - | - | - |
| 1777719910 | 3.33° C | 99% | 1014.8 hPa | 0 mm | - | - | - |
| 1777719608 | 3.33° C | 98% | 1014.8 hPa | 0 mm | - | - | - |
| 1777719305 | 3.33° C | 97% | 1014.8 hPa | 0 mm | - | - | - |
| 1777719003 | 3.33° C | 97% | 1013.8 hPa | 0 mm | - | - | - |
| 1777718699 | 3.33° C | 96% | 1013.8 hPa | 0 mm | - | - | - |
| 1777718397 | 3.33° C | 96% | 1013.8 hPa | 0 mm | - | - | - |
* Rain latest hour (hover to see other rain measurements)
** Current wind speed in m/s (hover to see current wind gust speed)